Content
SEND FEEDBACK

Daily
Averages
Monthly
Summary
United States of America

BLACK HAWK, SOUTH DAKOTA


Home > North America > United States > South Dakota
Elevation: 3352 feet     Latitude: 44 05N     Longitude: 103 16W

WEATHER
 
SELECT A DAY
Number of Records: 204,047;   Date Range: 1/1/95 - 7/23/14
 
SHARE

PRINT THIS DATA

[ ← Previous Day ]
WEATHER ALMANAC - MAY 1, 2013
[ Next Day → ]
[ °C ]   °F
Weather ElementAverageHighLow
Temperature39.7 °F49.1 °F (4:58 pm)30.4 °F (11:58 pm)
Dewpoint16.5 °F20.1 °F (2:58 am)9.9 °F (5:58 pm)
Humidity41.3 %62 % (2:58 am)21 % (5:58 pm)
Barometer30.50 in30.68 in (11:58 pm)30.24 in (1:58 am)
Wind Speed10.9 mph18.4 mph (1:58 am)
Wind Gust23 mph (2:42 pm)
Weather ElementAverage
Visibility10 mi
Wind DirectionSW (221.9 °)

Weather ElementTotal
Precipitation---
Heating Degree Days25.3 (Base 65)
Averaged from 26 records on May 1, 2013
WEATHER CONDITIONS BREAKOUT
WIND DIRECTION BREAKOUT
WEATHER BY HOUR - MAY 1, 2013
[ °C ]   °F
Local TimeTemperatureDewpointHumidityBarometerVisibilityWind DirectionWind SpeedGust SpeedPrecipitationEventsConditions
1:58 AM32.9 °F19.4 °F58 %30.24 in10.0 miNNW (340°)18.4 mphMostly Cloudy
2:58 AM32.0 °F20.1 °F62 %30.28 in10.0 miNorth (350°)9.2 mphOvercast
3:58 AM32.5 °F20.1 °F60 %30.34 in10.0 miNNW (330°)12.7 mphOvercast
4:58 AM32.7 °F19.4 °F58 %30.38 in10.0 miNNW (340°)11.5 mphOvercast
5:58 AM32.2 °F18.5 °F57 %30.40 in10.0 miNorth (360°)11.5 mphOvercast
6:58 AM31.8 °F19.0 °F59 %30.46 in10.0 miNorth (360°)9.2 mphMostly Cloudy
7:58 AM33.6 °F18.1 °F53 %30.48 in10.0 miNorth (10°)11.5 mphScattered Clouds
8:58 AM34.3 °F19.0 °F54 %30.49 in10.0 miNorth (10°)10.4 mphMostly Cloudy
9:58 AM36.7 °F18.0 °F47 %30.51 in10.0 miNNE (20°)9.2 mphScattered Clouds
10:58 AM38.8 °F17.1 °F41 %30.53 in10.0 miNorth (350°)12.7 mph18.4 mphMostly Cloudy
11:58 AM41.4 °F18.1 °F39 %30.52 in10.0 miNorth (10°)11.5 mph19.6 mphMostly Cloudy
12:39 PM42.8 °F17.6 °F36 %30.43 in10.0 miNNW (340°)13.8 mph21.9 mphMostly Cloudy
12:58 PM43.9 °F18.7 °F37 %30.51 in10.0 miNorth (350°)15.0 mph19.6 mphPartly Cloudy
1:25 PM44.6 °F19.4 °F37 %30.43 in10.0 miNorth (10°)13.8 mphClear
1:58 PM46.0 °F17.2 °F32 %30.52 in10.0 miNorth (360°)16.1 mphPartly Cloudy
2:42 PM46.4 °F15.8 °F29 %30.44 in10.0 miNorth (350°)17.3 mph23.0 mphPartly Cloudy
2:58 PM46.9 °F16.2 °F29 %30.53 in10.0 miNorth (350°)13.8 mph20.7 mphPartly Cloudy
3:58 PM47.8 °F15.6 °F28 %30.53 in10.0 miNNW (330°)8.1 mph20.7 mphPartly Cloudy
4:58 PM49.1 °F15.4 °F26 %30.54 in10.0 miNorth (360°)12.7 mphScattered Clouds
5:58 PM48.0 °F9.9 °F21 %30.55 in10.0 miNE (40°)11.5 mphClear
6:58 PM47.3 °F10.6 °F23 %30.57 in10.0 miNNE (20°)10.4 mphClear
7:58 PM44.2 °F10.9 °F26 %30.61 in10.0 miNorth (10°)6.9 mphClear
8:58 PM42.3 °F10.6 °F27 %30.63 in10.0 miNNE (20°)4.6 mphClear
9:58 PM38.5 °F14.0 °F37 %30.65 in10.0 miSSW (210°)2.3 mphClear
10:58 PM34.2 °F13.8 °F43 %30.66 in10.0 miWest (260°)3.5 mphClear
11:58 PM30.4 °F15.4 °F54 %30.68 in10.0 miWest (280°)5.8 mphClear
Hourly data recorded from KRCA, located miles away from Black Hawk, South Dakota







STORIES FROM OUR PARTNERS